1511589600.28,9258,8.69,73458.5,-2.81,-28.25,-28.53,0,*6C
1511589601.53,9259,8.75,73462.0,-2.83,-28.43,-28.63,0,*6C
1511589602.78,9260,8.75,73462.8,-2.83,-28.47,-28.63,0,*62
1511589604.01,9261,8.69,73460.5,-2.81,-28.37,-28.69,0,*6C
1511589605.26,9262,8.69,73462.5,-2.81,-28.37,-28.59,0,*6C
1511589606.5,9263,8.69,73464.5,-2.83,-28.47,-28.75,0,*66
1511589607.75,9264,8.69,73466.8,-2.81,-28.43,-28.69,0,*6A
1511589609.0,9265,8.69,73462.5,-2.81,-28.25,-28.53,0,*62
1511589610.27,9266,8.69,73466.5,-2.81,-28.09,-28.43,0,*6E
1511589611.55,9267,8.69,73462.0,-2.81,-28.09,-28.25,0,*6F
1511589612.76,9268,8.75,73466.8,-2.79,-27.93,-28.31,0,*6E
1511589613.99,9269,8.69,73464.8,-2.79,-27.99,-28.31,0,*65
1511589615.24,9270,8.69,73466.5,-2.81,-27.99,-28.37,0,*6C
1511589616.47,9271,8.75,73466.0,-2.79,-27.99,-28.31,0,*6C
1511589617.72,9272,8.75,73460.5,-2.81,-28.09,-28.37,0,*68
1511589618.92,9273,8.69,73460.8,-2.79,-28.15,-28.31,0,*65
1511589620.16,9274,8.69,73460.5,-2.79,-28.21,-28.37,0,*63
1511589621.36,9275,8.69,73460.3,-2.79,-28.15,-28.37,0,*65
1511589622.61,9276,8.69,73454.8,-2.81,-28.25,-28.53,0,*60
1511589623.81,9277,8.69,73452.3,-2.79,-28.15,-28.37,0,*67
1511589625.04,9278,8.69,73450.5,-2.79,-28.05,-28.37,0,*69
1511589626.27,9279,8.69,73448.5,-2.79,-28.05,-28.37,0,*68
1511589627.51,9280,8.69,73446.8,-2.79,-28.21,-28.37,0,*68
1511589628.73,9281,8.69,73446.5,-2.79,-28.31,-28.47,0,*6F
1511589629.96,9282,8.69,73450.3,-2.81,-28.37,-28.53,0,*68
1511589631.16,9283,8.69,73446.5,-2.79,-28.31,-28.53,0,*68
1511589632.4,9284,8.69,73448.0,-2.79,-28.37,-28.63,0,*6A
1511589633.65,9285,8.75,73450.5,-2.79,-28.21,-28.47,0,*6A
1511589634.88,9286,8.75,73452.0,-2.79,-28.31,-28.47,0,*68
1511589636.11,9287,8.69,73452.3,-2.79,-28.37,-28.63,0,*69
1511589637.39,9288,8.69,73458.8,-2.77,-28.47,-28.63,0,*6F
1511589638.63,9289,8.69,73458.8,-2.77,-28.47,-28.53,0,*6D
1511589639.9,9290,8.75,73460.3,-2.77,-28.47,-28.79,0,*6D
1511589641.13,9291,8.69,73460.0,-2.79,-28.63,-28.85,0,*67
1511589642.33,9292,8.75,73462.0,-2.79,-28.69,-28.97,0,*6D
1511589643.54,9293,8.75,73464.0,-2.79,-28.69,-28.85,0,*6F
1511589644.74,9294,8.69,73460.5,-2.79,-28.53,-28.69,0,*63
1511589645.98,9295,8.69,73458.0,-2.79,-28.63,-28.85,0,*63
1511589647.2,9296,8.69,73462.3,-2.79,-28.79,-28.97,0,*68
1511589648.45,9297,8.75,73464.8,-2.79,-28.47,-28.79,0,*64
1511589649.7,9298,8.75,73464.5,-2.79,-28.63,-28.79,0,*6D
1511589650.93,9299,8.69,73462.3,-2.79,-28.37,-28.63,0,*66
1511589652.18,9300,8.69,73460.0,-2.79,-28.47,-28.63,0,*60
1511589653.45,9301,8.69,73460.5,-2.81,-28.43,-28.75,0,*65
1511589654.67,9302,8.75,73460.3,-2.79,-28.47,-28.53,0,*61
1511589655.93,9303,8.69,73460.0,-2.79,-28.47,-28.63,0,*63
1511589657.15,9304,8.69,73456.3,-2.79,-28.47,-28.69,0,*6E
1511589658.37,9305,8.69,73458.8,-2.79,-28.47,-28.69,0,*6F
1511589659.58,9306,8.75,73460.8,-2.79,-28.37,-28.53,0,*62
1511589660.83,9307,8.69,73462.8,-2.79,-28.47,-28.63,0,*67
1511589662.05,9308,8.69,73462.5,-2.79,-28.69,-28.79,0,*6F
1511589663.26,9309,8.69,73462.8,-2.79,-28.53,-28.69,0,*66
1511589664.49,9310,8.69,73466.3,-2.81,-28.53,-28.85,0,*6B
1511589665.74,9311,8.69,73466.8,-2.79,-28.47,-28.63,0,*60
1511589666.99,9312,8.69,73464.8,-2.79,-28.63,-28.79,0,*6E
1511589668.19,9313,8.69,73464.3,-2.79,-28.69,-28.97,0,*65
1511589669.4,9314,8.69,73464.3,-2.79,-28.69,-28.85,0,*61
1511589670.65,9315,8.75,73472.3,-2.81,-28.69,-28.91,0,*62
1511589671.85,9316,8.69,73468.8,-2.79,-28.69,-28.97,0,*60
1511589673.1,9317,8.69,73468.0,-2.81,-28.85,-29.01,0,*6A
1511589674.33,9318,8.75,73472.5,-2.79,-28.63,-28.69,0,*65
1511589675.57,9319,8.69,73470.0,-2.81,-28.43,-28.69,0,*61
1511589676.84,9320,8.69,73468.0,-2.81,-28.43,-28.43,0,*63
1511589678.1,9321,8.69,73464.3,-2.79,-28.21,-28.47,0,*65
1511589679.35,9322,8.75,73464.5,-2.79,-28.47,-28.63,0,*60
1511589680.58,9323,8.69,73464.5,-2.79,-28.63,-28.69,0,*6D
1511589681.81,9324,8.69,73460.5,-2.79,-28.37,-28.47,0,*67
1511589683.03,9325,8.69,73460.3,-2.79,-28.15,-28.47,0,*66
1511589684.26,9326,8.75,73460.8,-2.81,-28.53,-28.69,0,*6C
1511589685.51,9327,8.75,73468.5,-2.81,-28.75,-28.85,0,*6B
1511589686.71,9328,8.69,73470.0,-2.79,-28.53,-28.69,0,*65
1511589687.94,9329,8.69,73468.8,-2.81,-28.53,-28.53,0,*6A
1511589689.17,9330,8.69,73468.0,-2.79,-28.37,-28.47,0,*62
1511589690.44,9331,8.69,73466.8,-2.81,-28.59,-28.75,0,*6D
1511589691.67,9332,8.69,73472.8,-2.81,-28.69,-28.85,0,*62
1511589692.92,9333,8.69,73476.3,-2.81,-28.85,-28.91,0,*64
1511589694.15,9334,8.69,73476.5,-2.79,-28.63,-28.85,0,*69
1511589695.42,9335,8.69,73480.5,-2.81,-28.59,-28.75,0,*69
1511589696.69,9336,8.69,73472.3,-2.81,-28.43,-28.59,0,*6F
1511589697.94,9337,8.69,73468.8,-2.81,-28.37,-28.43,0,*66
1511589699.22,9338,8.75,73472.3,-2.81,-28.09,-28.25,0,*64
1511589700.5,9339,8.69,73472.5,-2.81,-28.05,-28.21,0,*6D
1511589701.71,9340,8.69,73466.3,-2.79,-27.93,-28.15,0,*63
1511589702.94,9341,8.69,73470.0,-2.79,-27.99,-28.15,0,*68
1511589704.15,9342,8.69,73468.8,-2.79,-27.93,-28.31,0,*67
1511589705.44,9343,8.75,73472.0,-2.77,-28.05,-28.21,0,*69
1511589706.69,9344,8.69,73466.0,-2.77,-28.05,-28.31,0,*6F
1511589707.92,9345,8.69,73464.8,-2.77,-28.15,-28.31,0,*6F
1511589709.15,9346,8.69,73464.5,-2.77,-28.31,-28.37,0,*6C
1511589710.4,9347,8.69,73460.0,-2.77,-28.31,-28.47,0,*6A
1511589711.62,9348,8.69,73456.5,-2.77,-28.31,-28.37,0,*62
1511589712.87,9349,8.69,73462.8,-2.77,-28.31,-28.47,0,*64
1511589714.15,9350,8.69,73462.0,-2.77,-28.47,-28.63,0,*6B
1511589715.38,9351,8.69,73462.8,-2.77,-28.53,-28.69,0,*65
1511589716.65,9352,8.69,73460.8,-2.77,-28.63,-28.79,0,*64
1511589717.88,9353,8.69,73464.0,-2.79,-28.63,-28.69,0,*6A
1511589719.1,9354,8.69,73466.8,-2.79,-28.47,-28.69,0,*6B
1511589720.36,9355,8.69,73464.8,-2.77,-28.21,-28.37,0,*6F
1511589721.58,9356,8.69,73460.8,-2.77,-28.37,-28.53,0,*69
1511589722.86,9357,8.69,73462.5,-2.77,-28.47,-28.63,0,*6C
1511589724.11,9358,8.75,73464.8,-2.77,-28.53,-28.79,0,*6D
1511589725.38,9359,8.69,73460.5,-2.77,-28.63,-28.79,0,*6F
1511589726.64,9360,8.69,73458.5,-2.77,-28.79,-28.85,0,*6D
1511589727.87,9361,8.69,73460.0,-2.77,-28.69,-28.85,0,*6D
1511589729.11,9362,8.69,73460.8,-2.77,-28.69,-28.79,0,*6D
1511589730.34,9363,8.69,73460.0,-2.77,-28.53,-28.69,0,*64
1511589731.6,9364,8.69,73462.5,-2.77,-28.53,-28.63,0,*69
1511589732.85,9365,8.69,73464.3,-2.79,-28.47,-28.63,0,*63
1511589734.08,9366,8.69,73464.0,-2.79,-28.63,-28.69,0,*6C
1511589735.34,9367,8.69,73464.8,-2.77,-28.63,-28.69,0,*63
1511589736.62,9368,8.69,73466.0,-2.75,-28.59,-28.59,0,*64
1511589737.87,9369,8.69,73466.3,-2.75,-28.47,-28.69,0,*69
1511589739.12,9370,8.69,73466.5,-2.77,-28.69,-28.79,0,*6E
1511589740.35,9371,8.69,73466.3,-2.79,-28.53,-28.63,0,*63
1511589741.58,9372,8.69,73464.0,-2.77,-28.69,-28.85,0,*6F
1511589742.81,9373,8.69,73466.0,-2.79,-28.69,-28.79,0,*63
1511589744.03,9374,8.75,73470.3,-2.77,-28.69,-28.69,0,*6B
1511589745.29,9375,8.69,73468.5,-2.77,-28.63,-28.69,0,*60
1511589746.53,9376,8.69,73466.5,-2.77,-28.47,-28.53,0,*6C
1511589747.78,9377,8.69,73466.8,-2.77,-28.63,-28.69,0,*62
1511589749.03,9378,8.69,73466.5,-2.77,-28.69,-28.79,0,*66
1511589750.25,9379,8.69,73466.8,-2.79,-28.69,-28.79,0,*69
1511589751.48,9380,8.69,73470.0,-2.79,-28.63,-28.69,0,*64
1511589752.7,9381,8.69,73468.3,-2.79,-28.69,-28.79,0,*6E
1511589753.93,9382,8.69,73470.3,-2.79,-28.69,-28.79,0,*6D
1511589755.16,9383,8.69,73470.0,-2.77,-28.69,-28.85,0,*61
1511589756.38,9384,8.69,73468.3,-2.79,-28.79,-28.97,0,*6A
1511589757.64,9385,8.75,73474.0,-2.79,-28.79,-29.01,0,*65
1511589758.87,9386,8.69,73468.0,-2.79,-28.79,-28.85,0,*6B
1511589760.14,9387,8.69,73468.3,-2.81,-28.91,-29.01,0,*66
1511589761.39,9388,8.69,73474.3,-2.81,-28.91,-29.07,0,*6F
1511589762.66,9389,8.69,73470.0,-2.81,-29.01,-29.29,0,*6A
1511589763.91,9390,8.69,73470.8,-2.81,-28.75,-28.85,0,*67
1511589765.12,9391,8.69,73472.0,-2.79,-28.53,-28.53,0,*6E
1511589766.37,9392,8.69,73470.0,-2.81,-28.53,-28.59,0,*60
1511589767.62,9393,8.69,73464.0,-2.81,-28.43,-28.53,0,*6A
1511589768.84,9394,8.69,73464.8,-2.79,-28.47,-28.53,0,*6E
1511589770.09,9395,8.69,73460.8,-2.81,-28.53,-28.59,0,*67
1511589771.34,9396,8.69,73460.5,-2.81,-28.85,-28.75,0,*61
1511589772.62,9397,8.69,73466.3,-2.81,-28.59,-28.59,0,*6F
1511589773.85,9398,8.69,73460.0,-2.79,-28.53,-28.63,0,*64
1511589775.08,9399,8.69,73462.0,-2.79,-28.47,-28.53,0,*63
1511589776.33,9400,8.69,73466.5,-2.79,-28.47,-28.63,0,*67
1511589777.56,9401,8.69,73462.8,-2.79,-28.63,-28.69,0,*6A
1511589778.8,9402,8.69,73466.5,-2.81,-28.69,-28.75,0,*69
1511589780.04,9403,8.69,73462.8,-2.79,-28.53,-28.63,0,*61
1511589781.29,9404,8.69,73464.8,-2.81,-28.53,-28.43,0,*63
1511589782.49,9405,8.69,73464.5,-2.79,-28.37,-28.53,0,*66
1511589783.74,9406,8.69,73464.0,-2.81,-28.53,-28.43,0,*61
1511589784.95,9407,8.69,73462.3,-2.79,-28.53,-28.53,0,*66
1511589786.17,9408,8.69,73460.3,-2.79,-28.69,-28.75,0,*64
1511589787.42,9409,8.69,73460.8,-2.81,-28.75,-28.85,0,*60
1511589788.65,9410,8.69,73464.0,-2.79,-28.69,-28.79,0,*61
1511589789.91,9411,8.69,73464.8,-2.81,-28.75,-28.75,0,*66
1511589791.11,9412,8.69,73462.0,-2.79,-28.31,-28.37,0,*64
1511589792.37,9413,8.75,73464.8,-2.79,-28.47,-28.63,0,*65
1511589793.63,9414,8.69,73462.0,-2.79,-28.63,-28.63,0,*64
1511589794.89,9415,8.69,73464.0,-2.81,-28.75,-28.75,0,*62
1511589796.14,9416,8.69,73466.8,-2.79,-28.79,-28.79,0,*66
1511589797.38,9417,8.69,73466.5,-2.79,-28.53,-28.63,0,*64
1511589798.58,9418,8.75,73464.8,-2.79,-28.37,-28.37,0,*68
1511589799.81,9419,8.69,73462.0,-2.81,-28.53,-28.69,0,*67
1511589801.06,9420,8.69,73464.0,-2.79,-28.47,-28.47,0,*63
1511589802.31,9421,8.69,73458.0,-2.81,-28.69,-28.59,0,*66
1511589803.58,9422,8.69,73462.0,-2.81,-28.59,-28.59,0,*66
1511589804.84,9423,8.69,73458.8,-2.79,-28.63,-28.63,0,*60
1511589806.09,9424,8.69,73462.0,-2.79,-28.47,-28.47,0,*67
1511589807.32,9425,8.75,73466.8,-2.81,-28.53,-28.53,0,*61
1511589808.55,9426,8.69,73462.0,-2.77,-28.53,-28.53,0,*6B
1511589809.77,9427,8.69,73460.0,-2.79,-28.47,-28.53,0,*61
1511589810.98,9428,8.69,73456.5,-2.79,-28.31,-28.31,0,*6B
1511589812.21,9429,8.69,73454.0,-2.79,-28.37,-28.47,0,*6D
1511589813.46,9430,8.69,73452.5,-2.77,-28.37,-28.47,0,*6B
1511589814.68,9431,8.69,73452.0,-2.77,-28.31,-28.37,0,*6B
1511589815.96,9432,8.69,73448.5,-2.75,-28.25,-28.47,0,*68
1511589817.23,9433,8.69,73450.5,-2.77,-28.53,-28.63,0,*6C
1511589818.48,9434,8.69,73454.5,-2.77,-28.53,-28.59,0,*62
1511589819.74,9435,8.69,73452.8,-2.79,-28.63,-28.63,0,*67
1511589820.99,9436,8.69,73454.3,-2.77,-28.53,-28.47,0,*6F
1511589822.28,9437,8.69,73450.5,-2.77,-28.63,-28.63,0,*6B
1511589823.48,9438,8.69,73452.0,-2.79,-28.53,-28.53,0,*6A
1511589824.77,9439,8.69,73452.0,-2.77,-28.63,-28.63,0,*65
1511589826.02,9440,8.69,73458.3,-2.77,-28.63,-28.53,0,*68
1511589827.28,9441,8.69,73454.3,-2.77,-28.69,-28.63,0,*60
1511589828.52,9442,8.69,73458.3,-2.77,-28.69,-28.79,0,*68
1511589829.78,9443,8.69,73456.3,-2.77,-28.79,-28.85,0,*6B
1511589831.0,9444,8.69,73462.8,-2.77,-28.69,-28.69,0,*6F
1511589832.23,9445,8.69,73458.8,-2.77,-28.69,-28.69,0,*6E
1511589833.51,9446,8.69,73458.3,-2.77,-28.63,-28.63,0,*6D
1511589834.78,9447,8.69,73458.0,-2.77,-28.63,-28.75,0,*6B
1511589836.04,9448,8.69,73458.3,-2.77,-28.79,-28.69,0,*62
1511589837.28,9449,8.69,73458.5,-2.79,-28.79,-28.79,0,*6C
1511589838.51,9450,8.69,73460.8,-2.77,-28.85,-28.97,0,*69
1511589839.74,9451,8.69,73458.3,-2.77,-28.69,-28.69,0,*6B
1511589840.99,9452,8.69,73458.8,-2.77,-28.63,-28.69,0,*62
1511589842.24,9453,8.69,73456.0,-2.77,-28.79,-28.69,0,*68
1511589843.51,9454,8.69,73462.8,-2.77,-28.63,-28.79,0,*65
1511589844.74,9455,8.69,73462.3,-2.77,-28.97,-28.97,0,*6F
1511589845.97,9456,8.69,73462.3,-2.77,-28.85,-28.85,0,*6C
1511589847.2,9457,8.69,73462.0,-2.79,-28.91,-28.97,0,*65
1511589848.4,9458,8.69,73462.5,-2.79,-28.85,-28.97,0,*6F
1511589849.63,9459,8.69,73462.3,-2.79,-28.85,-29.01,0,*60
1511589850.86,9460,8.75,73470.3,-2.79,-28.97,-29.01,0,*69
1511589852.09,9461,8.69,73466.5,-2.79,-28.97,-29.01,0,*68
1511589853.31,9462,8.69,73468.0,-2.79,-29.01,-29.23,0,*65
1511589854.58,9463,8.69,73470.5,-2.81,-29.13,-29.29,0,*6A
1511589855.82,9464,8.69,73468.3,-2.81,-28.91,-29.07,0,*6A
1511589857.05,9465,8.69,73470.0,-2.79,-28.79,-28.69,0,*63
1511589858.28,9466,8.69,73470.8,-2.81,-28.85,-28.85,0,*66
1511589859.54,9467,8.69,73472.5,-2.81,-28.85,-28.91,0,*62
1511589860.79,9468,8.69,73470.8,-2.81,-28.85,-29.01,0,*65
1511589862.03,9469,8.69,73470.8,-2.81,-29.01,-29.07,0,*6F
1511589863.25,9470,8.69,73468.3,-2.83,-28.97,-29.13,0,*6E
1511589864.44,9471,8.69,73468.5,-2.83,-28.97,-28.97,0,*62
1511589865.67,9472,8.69,73470.8,-2.83,-28.79,-28.97,0,*61
1511589866.92,9473,8.69,73468.3,-2.83,-28.79,-28.91,0,*66
1511589868.16,9474,8.69,73460.8,-2.83,-28.75,-28.79,0,*6B
1511589869.39,9475,8.69,73460.3,-2.83,-28.91,-29.07,0,*68
1511589870.58,9476,8.69,73460.8,-2.83,-28.97,-29.07,0,*6D
1511589871.82,9477,8.69,73462.3,-2.83,-29.13,-29.13,0,*64
1511589873.09,9478,8.69,73462.8,-2.85,-29.13,-29.29,0,*64
1511589874.29,9479,8.69,73466.3,-2.83,-28.97,-28.97,0,*6A
1511589875.54,9480,8.69,73464.0,-2.83,-28.79,-28.91,0,*6A
1511589876.82,9481,8.69,73466.5,-2.85,-28.79,-28.91,0,*6D
1511589878.07,9482,8.69,73462.3,-2.83,-28.79,-28.91,0,*68
1511589879.27,9483,8.69,73462.0,-2.83,-29.07,-29.07,0,*6F
1511589880.46,9484,8.69,73466.5,-2.83,-28.97,-29.07,0,*60
1511589881.69,9485,8.69,73464.5,-2.85,-28.97,-28.97,0,*6F
1511589882.97,9486,8.69,73460.8,-2.85,-28.91,-28.91,0,*6C
1511589884.2,9487,8.69,73460.0,-2.85,-29.07,-28.97,0,*65
1511589885.43,9488,8.69,73460.3,-2.83,-28.97,-28.91,0,*62
1511589886.65,9489,8.69,73462.3,-2.85,-28.97,-28.97,0,*63
1511589887.85,9490,8.75,73466.0,-2.83,-28.97,-29.07,0,*65
1511589889.04,9491,8.69,73464.3,-2.83,-28.97,-28.97,0,*6C
1511589890.27,9492,8.69,73460.8,-2.85,-28.97,-28.97,0,*69
1511589891.46,9493,8.69,73464.5,-2.83,-29.07,-29.07,0,*6E
1511589892.69,9494,8.75,73468.5,-2.85,-28.97,-29.07,0,*67
1511589893.91,9495,8.69,73466.3,-2.85,-28.97,-28.97,0,*6E
1511589895.2,9496,8.69,73464.5,-2.85,-28.63,-28.59,0,*64
1511589896.44,9497,8.69,73464.0,-2.81,-28.69,-28.43,0,*60
1511589897.68,9498,8.69,73462.3,-2.83,-28.47,-28.47,0,*65
1511589898.96,9499,8.69,73464.8,-2.85,-28.63,-28.47,0,*64
1511589900.22,9500,8.69,73456.8,-2.83,-28.63,-28.63,0,*65
1511589901.47,9501,8.69,73464.3,-2.83,-28.79,-28.75,0,*68
1511589902.72,9502,8.69,73464.8,-2.83,-28.91,-28.91,0,*67
1511589904.01,9503,8.69,73466.5,-2.85,-28.91,-28.91,0,*60
1511589905.26,9504,8.69,73464.8,-2.83,-28.79,-28.63,0,*6A
1511589906.54,9505,8.69,73462.8,-2.85,-28.63,-28.47,0,*60
1511589907.83,9506,8.69,73464.8,-2.85,-28.59,-28.59,0,*65
1511589909.07,9507,8.69,73462.3,-2.83,-28.59,-28.47,0,*6D
1511589910.36,9508,8.69,73466.8,-2.85,-28.59,-28.59,0,*6B
1511589911.64,9509,8.69,73462.5,-2.85,-28.59,-28.59,0,*6A
1511589912.89,9510,8.69,73460.0,-2.83,-28.63,-28.59,0,*6D
1511589914.15,9511,8.69,73458.3,-2.83,-28.63,-28.59,0,*6C
1511589915.4,9512,8.75,73462.5,-2.83,-28.63,-28.63,0,*66
1511589916.65,9513,8.69,73456.3,-2.83,-28.75,-28.59,0,*69
1511589917.91,9514,8.69,73456.0,-2.83,-28.59,-28.59,0,*60
1511589919.15,9515,8.69,73460.3,-2.83,-28.47,-28.47,0,*61
1511589920.43,9516,8.69,73462.3,-2.85,-28.59,-28.47,0,*6B
1511589921.71,9517,8.75,73464.5,-2.85,-28.59,-28.47,0,*6A
1511589922.96,9518,8.69,73462.3,-2.83,-28.59,-28.47,0,*63
1511589924.2,9519,8.69,73460.3,-2.83,-28.47,-28.47,0,*6D
1511589925.45,9520,8.69,73460.0,-2.83,-28.59,-28.47,0,*68
1511589926.69,9521,8.69,73460.5,-2.83,-28.47,-28.47,0,*66
1511589927.93,9522,8.69,73466.0,-2.83,-28.47,-28.47,0,*65
1511589929.18,9523,8.69,73466.5,-2.83,-28.59,-28.43,0,*6F
1511589930.41,9524,8.69,73464.0,-2.79,-28.47,-28.31,0,*67
1511589931.68,9525,8.69,73466.8,-2.81,-28.43,-28.43,0,*60
1511589932.89,9526,8.69,73462.3,-2.79,-28.37,-28.31,0,*62
1511589934.14,9527,8.69,73462.0,-2.81,-28.43,-28.37,0,*61
1511589935.37,9528,8.69,73462.5,-2.79,-28.47,-28.31,0,*6B
1511589936.61,9529,8.69,73462.8,-2.81,-28.43,-28.37,0,*6F
1511589937.87,9530,8.69,73462.5,-2.81,-28.37,-28.25,0,*67
1511589939.12,9531,8.69,73460.5,-2.81,-28.37,-28.25,0,*66
1511589940.33,9532,8.69,73460.8,-2.79,-28.31,-28.31,0,*61
1511589941.56,9533,8.69,73456.8,-2.79,-28.47,-28.31,0,*61
1511589942.79,9534,8.69,73454.5,-2.79,-28.53,-28.47,0,*62
1511589943.99,9535,8.69,73450.8,-2.79,-28.37,-28.37,0,*66
1511589945.22,9536,8.69,73446.0,-2.81,-28.37,-28.37,0,*62
1511589946.45,9537,8.69,73442.8,-2.79,-28.53,-28.47,0,*61
1511589947.68,9538,8.69,73442.3,-2.79,-28.63,-28.53,0,*68
1511589948.91,9539,8.69,73436.3,-2.79,-28.53,-28.47,0,*6F
1511589950.12,9540,8.75,73428.8,-2.79,-28.53,-28.37,0,*66
1511589951.37,9541,8.75,73428.8,-2.79,-28.63,-28.47,0,*63
1511589952.6,9542,8.69,73426.8,-2.79,-28.53,-28.47,0,*63
1511589953.83,9543,8.69,73428.5,-2.79,-28.53,-28.47,0,*62
1511589955.09,9544,8.69,73436.5,-2.79,-28.63,-28.63,0,*60
1511589956.31,9545,8.69,73444.0,-2.79,-28.69,-28.47,0,*6D
1511589957.59,9546,8.69,73440.8,-2.81,-28.59,-28.43,0,*6E
1511589958.83,9547,8.69,73440.8,-2.77,-28.47,-28.37,0,*6A
1511589960.04,9548,8.69,73446.0,-2.79,-28.53,-28.37,0,*6E
1511589961.25,9549,8.69,73448.0,-2.79,-28.53,-28.37,0,*6F
1511589962.45,9550,8.69,73446.3,-2.79,-28.37,-28.37,0,*65
1511589963.67,9551,8.69,73448.3,-2.79,-28.47,-28.37,0,*63
1511589964.9,9552,8.69,73448.3,-2.79,-28.47,-28.37,0,*60
1511589966.14,9553,8.69,73450.3,-2.77,-28.47,-28.37,0,*6F
1511589967.4,9554,8.69,73450.5,-2.77,-28.53,-28.47,0,*6A
1511589968.65,9555,8.69,73452.0,-2.77,-28.79,-28.69,0,*6F
1511589969.88,9556,8.69,73452.3,-2.77,-28.69,-28.53,0,*64
1511589971.16,9557,8.69,73456.0,-2.77,-28.79,-28.63,0,*67
1511589972.41,9558,8.69,73452.5,-2.77,-28.85,-28.79,0,*60
1511589973.64,9559,8.69,73456.3,-2.77,-28.97,-28.85,0,*61
1511589974.88,9560,8.69,73450.0,-2.77,-28.97,-28.79,0,*68
1511589976.11,9561,8.69,73456.0,-2.77,-28.97,-28.97,0,*69
1511589977.33,9562,8.69,73456.3,-2.79,-28.97,-29.01,0,*6A
1511589978.56,9563,8.69,73456.8,-2.79,-29.17,-28.97,0,*6C
1511589979.79,9564,8.69,73458.5,-2.79,-29.07,-29.01,0,*64
1511589981.01,9565,8.69,73454.5,-2.79,-29.07,-29.17,0,*62
1511589982.29,9566,8.69,73452.5,-2.81,-29.01,-28.91,0,*6F
1511589983.51,9567,8.69,73448.0,-2.79,-28.85,-28.79,0,*62
1511589984.77,9568,8.69,73448.8,-2.81,-29.01,-28.85,0,*64
1511589986.04,9569,8.69,73446.0,-2.81,-29.01,-29.01,0,*68
1511589987.25,9570,8.69,73446.3,-2.79,-28.85,-28.97,0,*64
1511589988.45,9571,8.69,73448.8,-2.79,-28.85,-28.69,0,*64
1511589989.71,9572,8.69,73444.0,-2.81,-29.01,-28.85,0,*6F
1511589990.98,9573,8.69,73444.3,-2.81,-28.91,-28.75,0,*69
1511589992.24,9574,8.69,73440.8,-2.81,-28.91,-28.85,0,*61
1511589993.51,9575,8.75,73448.0,-2.81,-28.75,-28.59,0,*6B
1511589994.71,9576,8.69,73440.3,-2.79,-28.69,-28.53,0,*68
1511589995.94,9577,8.69,73438.0,-2.81,-28.69,-28.53,0,*6E
1511589997.16,9578,8.69,73438.0,-2.81,-28.85,-28.69,0,*6A
1511589998.41,9579,8.69,73448.0,-2.81,-28.75,-28.69,0,*64
1511589999.61,9580,8.69,73444.0,-2.79,-28.69,-28.53,0,*61
1511590000.84,9581,8.69,73446.5,-2.81,-28.85,-28.69,0,*6C
1511590002.1,9582,8.69,73450.5,-2.79,-28.79,-28.63,0,*61
1511590003.35,9583,8.69,73452.0,-2.81,-28.85,-28.75,0,*63
1511590004.58,9584,8.69,73456.3,-2.79,-28.79,-28.85,0,*6F
1511590005.83,9585,8.69,73456.5,-2.81,-29.07,-29.01,0,*6C
1511590007.08,9586,8.69,73456.3,-2.81,-29.07,-29.01,0,*6F
1511590008.35,9587,8.69,73456.3,-2.81,-29.01,-28.91,0,*60
1511590009.61,9588,8.69,73454.0,-2.79,-29.01,-29.01,0,*60
1511590010.89,9589,8.69,73448.0,-2.81,-28.91,-28.91,0,*66
1511590012.16,9590,8.69,73444.0,-2.81,-29.01,-28.91,0,*66
1511590013.44,9591,8.69,73446.5,-2.81,-28.91,-28.75,0,*65
1511590014.69,9592,8.69,73448.5,-2.81,-28.91,-28.85,0,*69
1511590015.89,9593,8.69,73448.3,-2.79,-28.97,-28.97,0,*6A
1511590017.14,9594,8.69,73452.8,-2.81,-29.07,-29.01,0,*6C
1511590018.34,9595,8.69,73454.5,-2.83,-29.07,-29.07,0,*69
1511590019.59,9596,8.69,73452.8,-2.85,-28.97,-28.91,0,*6A
1511590020.84,9597,8.69,73460.0,-2.85,-28.97,-28.79,0,*6D
1511590022.09,9598,8.69,73458.5,-2.83,-28.91,-28.79,0,*62
1511590023.35,9599,8.69,73460.5,-2.83,-28.91,-28.91,0,*65
1511590024.61,9600,8.69,73460.8,-2.81,-29.01,-28.75,0,*66
1511590025.84,9601,8.69,73460.0,-2.85,-28.97,-28.97,0,*61
1511590027.12,9602,8.69,73460.0,-2.81,-28.91,-28.91,0,*66
1511590028.34,9603,8.69,73456.3,-2.83,-28.97,-28.79,0,*65
1511590029.56,9604,8.69,73452.5,-2.83,-28.97,-28.91,0,*64
1511590030.81,9605,8.69,73454.3,-2.85,-28.97,-28.79,0,*65
1511590032.09,9606,8.69,73448.3,-2.85,-28.91,-28.75,0,*6C
1511590033.32,9607,8.69,73458.8,-2.83,-29.07,-28.91,0,*6F
1511590034.57,9608,8.69,73466.0,-2.85,-29.13,-29.07,0,*6D
1511590035.85,9609,8.69,73464.3,-2.85,-28.91,-28.79,0,*6F
1511590037.1,9610,8.69,73462.5,-2.83,-28.91,-28.75,0,*6D
1511590038.38,9611,8.69,73460.0,-2.85,-28.91,-28.91,0,*60
1511590039.61,9612,8.69,73454.0,-2.85,-29.07,-28.97,0,*6B
1511590040.86,9613,8.69,73456.8,-2.85,-29.17,-29.07,0,*63
1511590042.08,9614,8.69,73462.5,-2.83,-29.13,-29.07,0,*66
1511590043.33,9615,8.69,73460.3,-2.85,-29.13,-28.97,0,*69
1511590044.57,9616,8.69,73464.8,-2.85,-29.13,-29.07,0,*62
1511590045.83,9617,8.69,73458.8,-2.85,-28.97,-28.91,0,*60
1511590047.12,9618,8.69,73452.5,-2.85,-28.91,-28.91,0,*69
1511590048.39,9619,8.69,73448.0,-2.85,-28.91,-28.79,0,*6E
1511590049.65,9620,8.69,73454.5,-2.85,-28.97,-28.91,0,*64
1511590050.88,9621,8.69,73460.5,-2.85,-29.07,-28.97,0,*6B
1511590052.1,9622,8.69,73458.8,-2.85,-29.07,-28.97,0,*68
1511590053.33,9623,8.69,73456.3,-2.85,-29.07,-29.07,0,*61
1511590054.56,9624,8.69,73456.5,-2.87,-29.01,-28.85,0,*69
1511590055.84,9625,8.69,73454.5,-2.85,-28.79,-28.75,0,*6B
1511590057.11,9626,8.69,73452.5,-2.85,-28.79,-28.75,0,*68
1511590058.34,9627,8.69,73458.3,-2.87,-28.97,-28.79,0,*67
1511590059.59,9628,8.69,73456.5,-2.89,-29.01,-28.97,0,*68
1511590060.82,9629,8.69,73460.0,-2.87,-29.01,-28.85,0,*64
1511590062.06,9630,8.69,73462.3,-2.87,-29.01,-28.85,0,*6C
1511590063.29,9631,8.69,73462.3,-2.87,-29.01,-28.85,0,*6D
1511590064.5,9632,8.69,73462.5,-2.87,-28.97,-28.85,0,*60
1511590065.71,9633,8.69,73464.0,-2.87,-28.85,-28.69,0,*60
1511590066.96,9634,8.69,73456.8,-2.87,-28.79,-28.79,0,*65
1511590068.19,9635,8.69,73462.3,-2.87,-28.85,-28.63,0,*6C
1511590069.44,9636,8.69,73452.8,-2.87,-28.47,-28.47,0,*67
1511590070.7,9637,8.69,73458.0,-2.87,-28.79,-28.63,0,*6D
1511590071.93,9638,8.69,73464.3,-2.87,-28.79,-28.53,0,*61
1511590073.16,9639,8.69,73458.5,-2.87,-28.63,-28.53,0,*6B
1511590074.36,9640,8.69,73458.3,-2.87,-28.69,-28.69,0,*66
1511590075.6,9641,8.69,73450.5,-2.87,-28.79,-28.53,0,*6F
1511590076.86,9642,8.69,73454.5,-2.87,-28.79,-28.63,0,*6F
1511590078.09,9643,8.69,73460.5,-2.87,-28.63,-28.53,0,*66
1511590079.37,9644,8.69,73454.5,-2.85,-28.91,-28.59,0,*64
1511590080.66,9645,8.69,73448.8,-2.85,-28.79,-28.59,0,*63
1511590081.94,9646,8.69,73448.3,-2.85,-28.75,-28.59,0,*6C
1511590083.22,9647,8.69,73458.3,-2.85,-28.91,-28.79,0,*65
1511590084.47,9648,8.69,73466.8,-2.85,-28.97,-28.91,0,*6A
1511590085.72,9649,8.69,73468.5,-2.85,-28.97,-28.79,0,*6D
1511590086.98,9650,8.69,73464.0,-2.85,-29.07,-28.91,0,*6B
1511590088.23,9651,8.69,73460.5,-2.87,-29.01,-29.01,0,*66
1511590089.44,9652,8.69,73460.0,-2.87,-28.85,-28.69,0,*67
1511590090.66,9653,8.69,73448.0,-2.87,-28.97,-28.79,0,*64
1511590091.94,9654,8.69,73452.0,-2.89,-28.79,-28.63,0,*66
1511590093.18,9655,8.69,73452.5,-2.87,-28.97,-28.63,0,*69
1511590094.38,9656,8.69,73458.5,-2.87,-28.97,-28.69,0,*60
1511590095.6,9657,8.69,73452.5,-2.87,-28.97,-28.79,0,*60
1511590096.85,9658,8.69,73454.8,-2.89,-28.97,-28.79,0,*61
1511590098.05,9659,8.69,73452.8,-2.87,-28.97,-28.69,0,*6F
1511590099.28,9660,8.69,73452.0,-2.89,-28.85,-28.69,0,*68
1511590100.49,9661,8.69,73452.5,-2.87,-28.97,-28.69,0,*64
1511590101.71,9662,8.69,73454.0,-2.87,-28.97,-28.79,0,*66
1511590102.92,9663,8.69,73456.5,-2.87,-28.97,-28.85,0,*64
1511590104.12,9664,8.69,73466.5,-2.87,-28.97,-28.85,0,*63
1511590105.4,9665,8.69,73456.5,-2.85,-28.91,-28.75,0,*69
1511590106.6,9666,8.69,73452.0,-2.87,-28.97,-28.97,0,*62
1511590107.8,9667,8.69,73450.8,-2.87,-28.97,-28.97,0,*63
1511590109.01,9668,8.69,73454.3,-2.87,-28.97,-28.85,0,*6F
1511590110.23,9669,8.69,73456.3,-2.89,-28.97,-28.97,0,*63
1511590111.44,9670,8.69,73458.3,-2.87,-28.97,-28.85,0,*66
1511590112.65,9671,8.69,73464.8,-2.87,-28.97,-28.85,0,*67